Preview of NWS' New Version of Forecast
This preview is not operational and should not be used for support decisions.

Regional Weather Roundup (RWR)

Issued by Gray - Portland, ME (GYX)

                            
000
ASUS41 KGYX 240705
RWRGYX
WEATHER ROUNDUP FOR MAINE AND NEW HAMPSHIRE
NATIONAL WEATHER SERVICE GRAY ME
300 AM EDT WED APR 24 2019

MEZ002-005-006-010-012-015-018-020-021-024-026-027-029-240800-
MAINE
  
CITY           SKY/WX    TMP DP  RH WIND       PRES   REMARKS
PORTLAND       LGT RAIN  43  40  89 E7        29.76F FOG              
SANFORD        LGT RAIN  41  41 100 SE8       29.75F                  
BAR HARBOR     CLOUDY    37  36  96 N5        29.80F                  
WISCASSET      LGT RAIN  41  40  96 E5        29.79F FOG              
ROCKLAND       CLOUDY    40  38  93 CALM      29.80F                  
FRYEBURG       LGT RAIN  41  41 100 E5        29.75F FOG              
LEWISTONAUBURN LGT RAIN  40  40 100 E3        29.77F                  
AUGUSTA        LGT RAIN  39  39 100 SE5       29.78F FOG              
WATERVILLE     LGT RAIN  38  38 100 CALM      29.76F                  
BANGOR         CLOUDY    38  36  92 NE7       29.79F                  
GREENVILLE       N/A     33  32  96 SE6       29.71F                  
MILLINOCKET    CLOUDY    36  33  89 NE5       29.79F                  
HOULTON        CLOUDY    34  33  96 N7        29.77F FOG              
PRESQUE ISLE   CLOUDY    34  30  85 N8        29.80F                  
FRENCHVILLE    CLOUDY    34  28  79 NE6       29.80F                  
CARIBOU        CLOUDY    34  29  82 N9        29.79F                  
$$

NHZ002-005-008-009-011-012-014-240800-
NEW HAMPSHIRE
  
CITY           SKY/WX    TMP DP  RH WIND       PRES   REMARKS
PORTSMOUTH     CLOUDY    42  41  96 SE10      29.72F                  
ROCHESTER      LGT RAIN  42  42 100 E6        29.73F                  
NASHUA         CLOUDY    45  45 100 E6        29.74S                  
MANCHESTER     CLOUDY    45  43  93 SE3       29.73F                  
CONCORD        CLOUDY    42  41  96 SE3       29.74F                  
LACONIA        CLOUDY    42  41  96 E7        29.73F                  
PLYMOUTH       DRIZZLE   43  42  95 E3        29.73F                  
BERLIN         LGT RAIN  43  41  93 VRB3      29.67F                  
WHITEFIELD     CLOUDY    46  42  86 N3        29.63F                  
JAFFREY        CLOUDY    48  46  93 VRB5      29.71S                  
KEENE          CLOUDY    54  51  90 S8        29.68F                  
LEBANON        CLOUDY    50  45  83 VRB3      29.64F                  
MT WASHINGTON  NOT AVBL                                               
$$

VTZ005-007-008-240800-
VERMONT
  
CITY           SKY/WX    TMP DP  RH WIND       PRES   REMARKS
ST JOHNSBURY     N/A     48  46  93 MISG      29.61F                  
MONTPELIER     RAIN      52  49  89 S9        29.64F FOG              
BURLINGTON     CLOUDY    58  54  86 SW7       29.57S                  
$$

MAZ007-012-024-CTZ003-RIZ002-NYZ038-NYZ072-240800-
SOUTHERN NEW ENGLAND AND NY
  
CITY           SKY/WX    TMP DP  RH WIND       PRES   REMARKS
BOSTON         CLOUDY    48  46  93 S7        29.74F FOG              
WORCESTER      LGT RAIN  48  48 100 S10       29.71F FOG              
NANTUCKET      CLOUDY    45  44  97 SE15      29.81F                  
PROVIDENCE     LGT RAIN  49  48  97 S10       29.75F                  
HARTFORD       MOCLDY    54  52  93 S9        29.69F                  
ALBANY         CLOUDY    59  50  72 NW13G24   29.68R                  
NEW YORK CITY  CLOUDY    65  51  60 SW10      29.68F                  
$$

ANZ081-ANZ082-ANZ150-NHZ014-MEZ023>029-240800-
COASTAL MARINE OBSERVATIONS
  
STATION/POSITION TIME  TEMP    WIND        PRES    WAVE
                       AIR SEA DIR/SP/G            HT/PER
                 (UTC) (F)     (DEG/KT/KT) (MB)    (FT/S)
ISLE OF SHOALS   0600   42     130/ 16/ 17 1007.4F
$$

.............KEY..............
   WCI - WIND CHILL
   TC  - TEMPERATURE IN CELSIUS
   VSB - VISIBILITY IN MILES
   HX  - HEAT INDEX
   FAIR- INDICATES FEW OR NO CLOUDS BELOW 12,000 FT, WITH NO 
         SIGNIFICANT WEATHER AND/OR OBSTRUCTIONS TO VISIBILITY.